When you browse on this site, cookies collect data to enhance your experience and personalize the content and advertising you see.
Visit our Privacy Policy to learn more. By continuing to use the site, you agree to this use of cookies and data.
  • în România
  • Lista ţărilor
  • Pe 7 zile
  • Temperatura apei
  • Hartă satelitară
  • Meteo pe hartă
  • Widget-uri
  • user-avatar
    Intrare

    Meteo pe oră la Kurkieki

    Astăzi, 22 Iulie, Luni

    Timp Temperatura Precipitaţii Vânt Presiune Umiditate
    00:00 +15°C° 0 mm 1 m/s 762 mmHg 70%
    01:00 +14°C° 0 mm 1 m/s 762 mmHg 71%
    02:00 +14°C° 0 mm 1 m/s 762 mmHg 73%
    03:00 +15°C° 0 mm 1 m/s 762 mmHg 73%
    04:00 +16°C° 0 mm 1 m/s 762 mmHg 72%
    05:00 +16°C° 0 mm 1 m/s 762 mmHg 72%
    06:00 +19°C° 0 mm 1 m/s 762 mmHg 65%
    07:00 +21°C° 0 mm 1 m/s 762 mmHg 58%
    08:00 +24°C° 0 mm 1 m/s 761 mmHg 51%
    09:00 +25°C° 0 mm 1 m/s 761 mmHg 48%
    10:00 +26°C° 0 mm 1 m/s 761 mmHg 45%
    11:00 +27°C° 0 mm 1 m/s 761 mmHg 41%
    12:00 +26°C° 0 mm 2 m/s 761 mmHg 43%
    13:00 +26°C° 0 mm 2 m/s 761 mmHg 45%
    14:00 +25°C° 0 mm 2 m/s 761 mmHg 47%
    15:00 +25°C° 0 mm 2 m/s 761 mmHg 48%
    16:00 +24°C° 0 mm 1 m/s 760 mmHg 49%
    17:00 +24°C° 0 mm 1 m/s 760 mmHg 49%
    18:00 +23°C° 0 mm 1 m/s 760 mmHg 54%
    19:00 +21°C° 0 mm 1 m/s 760 mmHg 58%
    20:00 +20°C° 0 mm 1 m/s 760 mmHg 63%
    21:00 +19°C° 0 mm 1 m/s 760 mmHg 64%
    22:00 +18°C° 0 mm 1 m/s 760 mmHg 66%
    23:00 +14°C° 0 mm 0 m/s 760 mmHg 68%

    Mâine, 23 Iulie, Marţi

    Timp Temperatura Precipitaţii Vânt Presiune Umiditate
    00:00 +15°C° 0 mm 1 m/s 760 mmHg 69%
    01:00 +15°C° 0 mm 1 m/s 760 mmHg 69%
    02:00 +15°C° 0 mm 1 m/s 760 mmHg 70%
    03:00 +15°C° 0 mm 1 m/s 760 mmHg 71%
    04:00 +16°C° 0 mm 1 m/s 760 mmHg 72%
    05:00 +16°C° 0 mm 2 m/s 760 mmHg 73%
    06:00 +18°C° 0 mm 2 m/s 760 mmHg 67%
    07:00 +19°C° 0 mm 2 m/s 760 mmHg 61%
    08:00 +21°C° 0 mm 2 m/s 760 mmHg 55%
    09:00 +23°C° 0 mm 2 m/s 760 mmHg 50%
    10:00 +24°C° 0 mm 2 m/s 760 mmHg 45%
    11:00 +25°C° 0 mm 2 m/s 760 mmHg 41%
    12:00 +26°C° 0 mm 2 m/s 760 mmHg 38%
    13:00 +26°C° 0 mm 2 m/s 760 mmHg 36%
    14:00 +26°C° 0 mm 2 m/s 760 mmHg 34%
    15:00 +26°C° 0 mm 2 m/s 760 mmHg 34%
    16:00 +26°C° 0 mm 2 m/s 760 mmHg 34%
    17:00 +26°C° 0 mm 2 m/s 760 mmHg 35%
    18:00 +24°C° 0 mm 2 m/s 760 mmHg 41%
    19:00 +22°C° 0 mm 1 m/s 759 mmHg 48%
    20:00 +20°C° 0 mm 1 m/s 759 mmHg 54%
    21:00 +19°C° 0 mm 1 m/s 760 mmHg 55%
    22:00 +18°C° 0 mm 1 m/s 760 mmHg 56%
    23:00 +16°C° 0 mm 0 m/s 760 mmHg 56%

    Poimâine, 24 Iulie, Miercuri

    Timp Temperatura Precipitaţii Vânt Presiune Umiditate
    00:00 +15°C° 0 mm 0 m/s 760 mmHg 58%
    01:00 +15°C° 0 mm 0 m/s 760 mmHg 61%
    02:00 +15°C° 0 mm 0 m/s 760 mmHg 63%
    03:00 +16°C° 0 mm 1 m/s 760 mmHg 64%
    04:00 +16°C° 0 mm 1 m/s 760 mmHg 66%
    05:00 +16°C° 0 mm 2 m/s 760 mmHg 67%
    06:00 +18°C° 0 mm 2 m/s 760 mmHg 64%
    07:00 +19°C° 0 mm 2 m/s 760 mmHg 60%
    08:00 +22°C° 0 mm 1 m/s 760 mmHg 56%
    09:00 +22°C° 0 mm 1 m/s 760 mmHg 57%
    10:00 +22°C° 0 mm 1 m/s 760 mmHg 57%
    11:00 +23°C° 0 mm 1 m/s 760 mmHg 57%
    12:00 +21°C° 0 mm 2 m/s 760 mmHg 58%
    13:00 +21°C° 0 mm 2 m/s 760 mmHg 59%
    14:00 +21°C° 0 mm 3 m/s 760 mmHg 59%
    15:00 +20°C° 0 mm 2 m/s 760 mmHg 61%
    16:00 +20°C° 0 mm 2 m/s 760 mmHg 63%
    17:00 +20°C° 0 mm 2 m/s 760 mmHg 64%
    18:00 +19°C° 0 mm 2 m/s 760 mmHg 69%
    19:00 +19°C° 0 mm 1 m/s 760 mmHg 73%
    20:00 +18°C° 0 mm 1 m/s 760 mmHg 77%
    21:00 +16°C° 0 mm 1 m/s 761 mmHg 79%
    22:00 +16°C° 0 mm 1 m/s 761 mmHg 82%
    23:00 +14°C° 0 mm 0 m/s 761 mmHg 84%

    25 Iulie, Joi

    Timp Temperatura Precipitaţii Vânt Presiune Umiditate
    00:00 +14°C° 0 mm 0 m/s 761 mmHg 86%
    01:00 +13°C° 0 mm 0 m/s 761 mmHg 87%
    02:00 +13°C° 0 mm 0 m/s 762 mmHg 89%
    03:00 +13°C° 0 mm 0 m/s 762 mmHg 87%
    04:00 +14°C° 0 mm 0 m/s 762 mmHg 85%
    05:00 +15°C° 0 mm 0 m/s 762 mmHg 83%
    06:00 +19°C° 0 mm 1 m/s 762 mmHg 75%
    07:00 +21°C° 0 mm 1 m/s 762 mmHg 68%
    08:00 +23°C° 0 mm 1 m/s 762 mmHg 60%
    09:00 +25°C° 0 mm 1 m/s 762 mmHg 54%
    10:00 +27°C° 0 mm 1 m/s 763 mmHg 48%
    11:00 +29°C° 0 mm 1 m/s 763 mmHg 42%
    12:00 +29°C° 0 mm 1 m/s 763 mmHg 42%
    13:00 +29°C° 0 mm 2 m/s 763 mmHg 42%
    14:00 +29°C° 0 mm 2 m/s 762 mmHg 42%
    15:00 +28°C° 0 mm 2 m/s 762 mmHg 46%
    16:00 +27°C° 0 mm 1 m/s 762 mmHg 50%
    17:00 +27°C° 0 mm 1 m/s 762 mmHg 54%
    18:00 +25°C° 0 mm 1 m/s 763 mmHg 60%
    19:00 +24°C° 0 mm 1 m/s 763 mmHg 66%
    20:00 +23°C° 0 mm 1 m/s 763 mmHg 71%
    21:00 +22°C° 0 mm 1 m/s 763 mmHg 74%
    22:00 +21°C° 0 mm 1 m/s 763 mmHg 76%
    23:00 +20°C° 0 mm 1 m/s 763 mmHg 79%

    26 Iulie, Vineri

    Timp Temperatura Precipitaţii Vânt Presiune Umiditate
    00:00 +20°C° 0 mm 1 m/s 764 mmHg 79%
    01:00 +19°C° 0 mm 1 m/s 764 mmHg 80%
    02:00 +18°C° 0 mm 2 m/s 764 mmHg 80%
    03:00 +18°C° 0 mm 2 m/s 764 mmHg 79%
    04:00 +18°C° 0 mm 2 m/s 764 mmHg 78%
    05:00 +19°C° 0 mm 2 m/s 764 mmHg 78%
    06:00 +20°C° 0 mm 2 m/s 765 mmHg 72%
    07:00 +23°C° 0 mm 2 m/s 765 mmHg 66%
    08:00 +25°C° 0 mm 2 m/s 765 mmHg 60%
    09:00 +26°C° 0 mm 2 m/s 765 mmHg 56%
    10:00 +27°C° 0 mm 2 m/s 765 mmHg 52%
    11:00 +28°C° 0 mm 2 m/s 765 mmHg 49%
    12:00 +28°C° 0 mm 2 m/s 764 mmHg 47%
    13:00 +28°C° 0 mm 2 m/s 764 mmHg 45%
    14:00 +29°C° 0 mm 1 m/s 764 mmHg 43%
    15:00 +29°C° 0 mm 1 m/s 764 mmHg 43%
    16:00 +29°C° 0 mm 1 m/s 763 mmHg 44%
    17:00 +29°C° 0 mm 1 m/s 763 mmHg 44%
    18:00 +27°C° 0 mm 1 m/s 763 mmHg 51%
    19:00 +25°C° 0 mm 1 m/s 763 mmHg 58%
    20:00 +24°C° 0 mm 1 m/s 763 mmHg 65%
    21:00 +23°C° 0 mm 1 m/s 763 mmHg 67%
    22:00 +22°C° 0 mm 1 m/s 763 mmHg 69%
    23:00 +20°C° 0 mm 2 m/s 763 mmHg 71%

    27 Iulie, Sâmbătă

    Timp Temperatura Precipitaţii Vânt Presiune Umiditate
    00:00 +19°C° 0 mm 2 m/s 763 mmHg 72%
    01:00 +19°C° 0 mm 2 m/s 763 mmHg 72%
    02:00 +19°C° 0 mm 2 m/s 763 mmHg 72%
    03:00 +19°C° 0 mm 2 m/s 762 mmHg 73%
    04:00 +19°C° 0 mm 2 m/s 762 mmHg 73%
    05:00 +19°C° 0 mm 2 m/s 762 mmHg 73%
    06:00 +21°C° 0 mm 2 m/s 762 mmHg 66%
    07:00 +25°C° 0 mm 2 m/s 762 mmHg 59%
    08:00 +27°C° 0 mm 2 m/s 761 mmHg 52%
    09:00 +28°C° 0 mm 3 m/s 761 mmHg 47%
    10:00 +30°C° 0 mm 3 m/s 761 mmHg 43%
    11:00 +31°C° 0 mm 3 m/s 761 mmHg 38%
    12:00 +33°C° 0 mm 3 m/s 761 mmHg 37%
    13:00 +33°C° 0 mm 3 m/s 760 mmHg 36%
    14:00 +34°C° 0 mm 4 m/s 760 mmHg 36%
    15:00 +33°C° 0 mm 4 m/s 760 mmHg 39%
    16:00 +32°C° 0 mm 4 m/s 760 mmHg 42%
    17:00 +30°C° 0 mm 4 m/s 760 mmHg 45%
    18:00 +28°C° 0 mm 4 m/s 761 mmHg 54%
    19:00 +25°C° 0 mm 4 m/s 761 mmHg 63%
    20:00 +21°C° 0 mm 4 m/s 762 mmHg 72%
    21:00 +20°C° 0 mm 4 m/s 762 mmHg 71%
    22:00 +18°C° 0 mm 4 m/s 763 mmHg 71%
    23:00 +16°C° 0 mm 5 m/s 763 mmHg 70%
    Arată mai mult